This demonstration page uses our WeatherBlox Daily Observations layout. Learn more.

38.89511, -77.03637

Hourly Observations for June 25, 2015

Temp ( °F °C ) Dew Point ( °F °C ) Humidity (%) Winds ( mph kmh ) Pressure ( in mb ) Visibility ( mi km ) Precip ( " mm )
12:52 am 00:52 Partly Cloudy 76 24.4 59 15 56 56 N 5 7 30.08 1019 10 16.0934 0 0
1:52 am 01:52 Mostly Clear 75 23.9 60 15.6 60 60 N 3 6 30.08 1019 10 16.0934 0 0
2:52 am 02:52 Partly Cloudy 74 23.3 60 15.6 62 62 Calm 30.07 1018 10 16.0934 0 0
3:52 am 03:52 Partly Cloudy 73 22.8 60 15.6 64 64 Calm 30.08 1019 10 16.0934 0 0
4:52 am 04:52 Mostly Cloudy 72 22.2 61 16.1 68 68 Calm 30.07 1018 10 16.0934 0 0
5:52 am 05:52 Partly Cloudy 72 22.2 60 15.6 66 66 SW 3 6 30.09 1019 10 16.0934 0 0
6:52 am 06:52 Mostly Cloudy 73 22.8 61 16.1 66 66 Calm 30.1 1019 10 16.0934 0 0
7:52 am 07:52 Mostly Cloudy 77 25 60 15.6 56 56 Calm 30.09 1019 10 16.0934 0 0
8:52 am 08:52 Mostly Cloudy 80 26.7 61 16.1 52 52 Calm 30.11 1020 10 16.0934 0 0
9:18 am 09:18 Mostly Cloudy 79 26 63 17 58 58 Calm 30.12 1020 10 16.0934 0 0
9:52 am 09:52 Mostly Cloudy 81 27.2 62 16.7 53 53 SSE 5 7 30.1 1019 10 16.0934 0 0
10:52 am 10:52 Mostly Cloudy 82 27.8 60 15.6 47 47 SSE 5 7 30.08 1019 10 16.0934 0 0
11:52 am 11:52 Cloudy 82 27.8 61 16.1 49 49 SSE 6 9 30.08 1019 10 16.0934 0 0
12:52 pm 12:52 Mostly Cloudy 85 29.4 59 15 42 42 S 7 11 30.05 1018 10 16.0934 0 0
1:52 pm 13:52 Mostly Cloudy 85 29.4 64 17.8 50 50 S 9 15 30.03 1017 10 16.0934 0 0
2:52 pm 14:52 Mostly Cloudy 86 30 62 16.7 45 45 S 9 15 30.02 1017 10 16.0934 0 0
3:52 pm 15:52 Mostly Cloudy 84 28.9 63 17.2 49 49 S 8 13 30 1016 10 16.0934 0 0
4:52 pm 16:52 Cloudy 85 29.4 64 17.8 50 50 S 9 15 29.97 1015 10 16.0934 0 0
5:52 pm 17:52 Cloudy 84 28.9 64 17.8 51 51 S 8 13 29.97 1015 10 16.0934 0 0
6:52 pm 18:52 Cloudy 83 28.3 65 18.3 55 55 SE 8 13 29.94 1014 10 16.0934 0 0
7:52 pm 19:52 Cloudy with Light Rain 82 27.8 66 18.9 58 58 SE 7 11 29.94 1014 10 16.0934 0 0.0254
8:01 pm 20:01 Cloudy 82 28 66 19 58 58 SE 5 7 29.94 1014 10 16.0934 0 0
8:21 pm 20:21 Cloudy 81 27 66 19 62 62 SE 6 9 29.94 1014 10 16.0934 0 0
8:52 pm 20:52 Cloudy 81 27.2 66 18.9 61 61 SSE 7 11 29.91 1013 10 16.0934 0 0
9:18 pm 21:18 Cloudy with Light Rain 81 27 66 19 62 62 Calm 29.91 1013 10 16.0934 0 0.0254
9:24 pm 21:24 Cloudy with Light Rain 81 27 66 19 62 62 SSE 6 9 29.91 1013 5 8.0467 0 0
9:30 pm 21:30 Cloudy with Light Rain 79 26 66 19 65 65 SSE 3 6 29.91 1013 9 14.48406 0 0
9:43 pm 21:43 Cloudy with Light Rain 79 26 68 20 70 70 W 12 19 29.97 1015 10 16.0934 0.03 0.762
9:47 pm 21:47 Cloudy with Heavy Rain 79 26 68 20 70 70 NW 31 50 29.97 1015 2 3.21868 0.04 1.016
9:49 pm 21:49 Cloudy with Heavy Rain 75 24 68 20 78 78 NNW 23 37 29.97 1015 1 1.60934 0.04 1.016
9:52 pm 21:52 Cloudy with Heavy Rain 74 23.3 69 20.6 85 85 NNW 17 28 29.97 1015 0.5 0.80467 0.15 3.81
9:54 pm 21:54 Cloudy with Heavy Rain 73 23 70 21 89 89 N 15 24 29.97 1015 0.5 0.80467 0 0
9:59 pm 21:59 Cloudy with Heavy Thunderstorms 73 23 70 21 89 89 NNW 12 19 29.97 1015 1 1.60934 0.28 7.112
10:01 pm 22:01 Cloudy with Heavy Thunderstorms 73 23 70 21 89 89 N 12 19 29.97 1015 2.5 4.02335 0.3 7.62
10:15 pm 22:15 Cloudy with Light Thunderstorms 73 23 70 21 89 89 NNW 6 9 29.97 1015 8 12.87472 0.33 8.382
10:21 pm 22:21 Cloudy with Light Rain 73 23 68 20 83 83 N 9 15 29.97 1015 10 16.0934 0.33 8.382
10:44 pm 22:44 Cloudy 73 23 68 20 83 83 NNE 12 19 29.97 1015 10 16.0934 0 0
10:52 pm 22:52 Cloudy 74 23.3 68 20 82 82 NE 10 17 29.97 1015 10 16.0934 0.33 8.382
11:52 pm 23:52 Cloudy 72 22.2 67 19.4 84 84 NNE 9 15 29.96 1015 10 16.0934 0 0

Powered by AerisWeather